sim
Sign-in with your pilot id or email,
or register
Callsign
Passwort

Schedule Details

Flight Number: RYR7128 (2)
Departure: Dublin Airport (EIDW) at 14:20
Arrival: Fuerteventura Airport (GCFV) at 18:45
Route: Ryanair Passenger Schedule. Enter filed route here before submitting Pirep.

Weather Information
Getting current METAR information for EIDW 231100Z 14014KT 9999 FEW025 22/16 Q1015 NOSIG
Getting current METAR information for GCFV 231100Z 06015KT 9999 FEW020 24/19 Q1017

Schedule Frequency

Route Map